GW3250 Weather Reports


time (UTC)temp
F
wind
direction
speed
knots
gust
knots
rain 1hr
in
rain 24hr
in
rain mn
in
humidity
%
barometer
mb
20260509175241 52 232 0.9 1.7 0.05 0.20 0.20 99 1008.6
20260509174737 52 173 0.0 0.9 0.00 0.19 0.19 99 1008.5
20260509174233 52 184 0.9 0.9 0.00 0.19 0.19 99 1008.5
20260509173729 52 198 0.9 0.9 0.00 0.19 0.19 99 1008.3
20260509173225 52 196 0.0 0.9 0.07 0.19 0.19 99 1008.3
20260509172721 51 198 0.9 0.9 0.07 0.19 0.19 99 1008.3
20260509172217 51 202 0.9 1.7 0.00 0.18 0.18 99 1008.5
20260509171713 51 213 0.9 1.7 0.00 0.18 0.18 99 1008.3
20260509171210 51 194 0.9 0.9 0.05 0.18 0.18 99 1008.4
20260509170707 51 161 0.0 0.0 0.12 0.18 0.18 99 1008.3
20260509170202 51 182 0.9 0.9 0.07 0.17 0.17 99 1008.4
20260509165701 51 225 1.7 2.6 0.07 0.17 0.17 99 1008.5
20260509165156 51 170 0.9 0.9 0.00 0.16 0.16 99 1008.5
20260509164652 51 185 0.9 0.9 0.00 0.16 0.16 99 1008.5
20260509164148 51 181 0.9 0.9 0.00 0.16 0.16 99 1008.4
20260509163646 51 182 0.9 0.9 0.00 0.16 0.16 99 1008.4
20260509163142 50 178 0.0 0.9 0.00 0.16 0.16 99 1008.5
20260509162639 50 165 0.0 0.0 0.00 0.16 0.16 99 1008.4
20260509162135 50 161 0.0 0.9 0.00 0.16 0.16 99 1008.5
20260509161631 50 161 0.0 0.0 0.00 0.16 0.16 99 1008.5
20260509161126 50 172 0.0 0.0 0.00 0.16 0.16 99 1008.4
20260509160623 50 181 0.0 0.0 0.00 0.16 0.16 99 1008.4
20260509160118 50 164 0.9 0.9 0.00 0.16 0.16 99 1008.7
20260509155615 49 164 0.9 0.9 0.05 0.16 0.16 99 1008.6
20260509155111 49 165 0.0 0.9 0.05 0.16 0.16 99 1008.7
20260509154606 49 162 0.0 0.0 0.00 0.15 0.15 99 1008.8
20260509154104 49 164 0.0 0.0 0.00 0.15 0.15 99 1009.2
20260509153601 49 186 0.0 0.0 0.00 0.15 0.15 99 1009.1
20260509153058 48 214 1.7 1.7 0.00 0.15 0.15 99 1009.2
20260509152554 48 128 0.0 0.9 0.07 0.15 0.15 99 1009.1
20260509152051 48 120 0.0 0.0 0.07 0.15 0.15 99 1009.1
20260509151547 48 120 0.0 0.0 0.00 0.14 0.14 99 1009.2
20260509151045 48 120 0.0 0.0 0.00 0.14 0.14 99 1009.1
20260509150542 48 120 0.0 0.9 0.00 0.14 0.14 99 1009.0
20260509150035 48 120 0.0 0.0 0.00 0.14 0.14 99 1009.3
20260509145530 48 120 0.0 0.0 0.00 0.14 0.14 99 1009.4
20260509145025 48 120 0.9 0.9 0.00 0.14 0.14 99 1009.2
20260509144523 47 119 0.9 0.9 0.05 0.14 0.14 99 1009.1
20260509144020 47 125 0.0 0.9 0.05 0.14 0.14 99 1009.2
20260509143517 48 137 0.0 0.9 0.00 0.13 0.13 99 1009.0
20260509143015 47 137 0.0 0.0 0.00 0.13 0.13 99 1009.0
20260509142510 47 138 1.7 1.7 0.00 0.13 0.13 99 1009.2
20260509142006 47 126 0.9 0.9 0.00 0.13 0.13 99 1009.0
20260509141503 47 126 0.9 0.9 0.07 0.13 0.13 99 1009.1
20260509140959 47 126 0.9 0.9 0.07 0.13 0.13 99 1009.0
20260509140455 47 126 0.9 0.9 0.00 0.12 0.12 99 1008.9
20260509135954 46 125 0.9 0.9 0.00 0.12 0.12 99 1008.9
20260509135451 46 126 0.9 0.9 0.00 0.12 0.12 99 1009.0
20260509134948 46 128 0.9 0.9 0.07 0.12 0.12 99 1009.0
20260509134446 46 120 0.9 0.9 0.07 0.12 0.12 99 1009.0
20260509133943 46 115 0.9 0.9 0.07 0.12 0.12 99 1009.1
20260509133439 46 122 0.9 1.7 0.00 0.11 0.11 99 1009.2
20260509132937 46 117 0.0 0.9 0.00 0.11 0.11 99 1009.2
20260509132435 46 116 1.7 1.7 0.00 0.11 0.11 99 1009.2
20260509131932 46 135 0.9 0.9 0.00 0.11 0.11 99 1009.4
20260509131429 46 116 1.7 1.7 0.05 0.11 0.11 99 1009.2
20260509130926 46 319 0.0 0.0 0.05 0.11 0.11 99 1009.5
20260509130421 46 99 0.9 0.9 0.00 0.10 0.10 99 1009.3
20260509125919 46 128 0.9 0.9 0.00 0.10 0.10 99 1009.6
20260509125415 46 103 0.0 0.9 0.00 0.10 0.10 99 1009.4
20260509124911 46 111 1.7 1.7 0.00 0.10 0.10 99 1009.2
20260509124408 46 104 1.7 1.7 0.07 0.10 0.10 99 1009.3
20260509123906 47 164 0.9 0.9 0.07 0.10 0.10 99 1009.5
20260509123403 47 158 0.0 0.0 0.00 0.09 0.09 99 1009.1
20260509122858 47 163 0.0 0.0 0.00 0.09 0.09 99 1009.1
20260509122355 46 129 0.0 0.0 0.00 0.09 0.09 99 1009.0
20260509121852 46 129 0.9 0.9 0.00 0.09 0.09 99 1009.0
20260509121350 46 128 0.0 0.0 0.00 0.09 0.09 99 1009.0
20260509120848 46 129 0.0 0.9 0.00 0.09 0.09 99 1009.0
20260509120345 46 124 0.9 0.9 0.00 0.09 0.09 99 1009.0
20260509115843 46 125 0.9 0.9 0.00 0.09 0.09 99 1008.9
20260509115340 46 124 0.9 0.9 0.00 0.09 0.09 99 1009.1
20260509114838 46 125 0.9 0.9 0.00 0.09 0.09 99 1008.9
20260509114336 46 134 0.9 0.9 0.00 0.09 0.09 99 1009.1
20260509113835 46 131 0.9 1.7 0.00 0.09 0.09 99 1009.0
20260509113332 46 174 0.9 0.9 0.05 0.09 0.09 99 1009.0
20260509112828 46 174 0.9 0.9 0.05 0.09 0.09 99 1009.1
20260509112326 46 174 0.0 0.9 0.00 0.08 0.08 99 1009.2
20260509111823 46 174 0.9 0.9 0.00 0.08 0.08 99 1009.1
20260509111320 46 174 0.9 1.7 0.00 0.08 0.08 99 1009.1
20260509110818 46 174 0.9 0.9 0.00 0.08 0.08 99 1009.2
20260509110313 46 174 0.9 0.9 0.00 0.08 0.08 99 1009.3
20260509105812 46 174 0.9 0.9 0.00 0.08 0.08 99 1009.4
20260509105309 46 174 0.9 0.9 0.00 0.08 0.08 99 1009.3
20260509104806 46 174 0.0 0.0 0.00 0.08 0.08 99 1009.3
20260509104303 46 174 0.9 0.9 0.07 0.08 0.08 99 1009.2
20260509103801 46 174 0.0 0.9 0.07 0.08 0.08 99 1009.3
20260509103257 45 174 0.0 0.0 0.00 0.07 0.07 99 1009.0
20260509102756 45 174 0.0 0.9 0.00 0.07 0.07 99 1008.9
20260509102253 45 173 0.0 0.9 0.00 0.07 0.07 99 1008.9
20260509101749 45 173 0.9 0.9 0.00 0.07 0.07 99 1009.1
20260509101245 45 173 0.0 0.9 0.00 0.07 0.07 99 1009.0
20260509100743 45 173 0.9 0.9 0.00 0.07 0.07 99 1008.8
20260509100240 45 173 0.0 0.0 0.00 0.07 0.07 99 1008.8
20260509095736 45 173 0.0 0.0 0.00 0.07 0.07 99 1009.0
20260509095234 45 173 0.0 0.9 0.00 0.07 0.07 99 1009.2
20260509094731 45 173 0.0 0.0 0.00 0.07 0.07 99 1009.2
20260509094228 45 173 0.0 0.9 0.00 0.07 0.07 99 1009.1
20260509093726 45 173 0.0 0.0 0.00 0.07 0.07 99 1009.4
20260509093222 45 173 0.0 0.0 0.00 0.07 0.07 99 1009.1
20260509092721 45 173 0.0 0.0 0.00 0.07 0.07 99 1009.3
20260509092219 46 173 0.0 0.0 0.00 0.07 0.07 99 1009.2
20260509091716 45 173 0.0 0.0 0.00 0.07 0.07 99 1009.1
20260509091212 45 174 0.0 0.0 0.00 0.07 0.07 99 1009.5
20260509090710 46 174 0.0 0.0 0.00 0.07 0.07 99 1009.5
20260509090207 45 174 0.0 0.0 0.00 0.07 0.07 99 1009.5
20260509085705 45 174 0.0 0.0 0.00 0.07 0.07 99 1009.5
20260509085201 45 174 0.0 0.0 0.00 0.07 0.07 99 1009.6
20260509084658 45 174 0.0 0.0 0.00 0.07 0.07 99 1009.5
20260509084155 45 174 0.0 0.0 0.00 0.07 0.07 99 1009.3
20260509083653 45 174 0.0 0.9 0.00 0.07 0.07 99 1009.4
20260509083149 46 174 0.0 0.0 0.00 0.07 0.07 99 1009.6
20260509082646 46 174 0.0 0.0 0.00 0.07 0.07 99 1009.5
20260509082142 46 174 0.0 0.9 0.00 0.07 0.07 99 1009.4
20260509081640 46 174 0.9 0.9 0.00 0.07 0.07 99 1009.7
20260509081137 46 174 0.9 0.9 0.00 0.07 0.07 99 1009.7
20260509080635 46 174 0.0 0.0 0.00 0.07 0.07 99 1009.8
20260509080133 46 174 0.0 0.9 0.00 0.07 0.07 99 1009.8
20260509075631 46 174 0.0 0.0 0.00 0.07 0.07 99 1009.6
20260509075128 46 174 0.0 0.0 0.00 0.07 0.07 99 1009.8
20260509074625 46 174 0.0 0.0 0.00 0.07 0.07 99 1009.3
20260509074121 46 174 0.0 0.0 0.00 0.07 0.07 99 1009.2
20260509073618 46 174 0.0 0.0 0.00 0.07 0.07 99 1009.3
20260509073114 46 174 0.9 0.9 0.00 0.07 0.07 99 1009.3
20260509072611 46 174 0.0 0.0 0.00 0.07 0.07 99 1009.3
20260509072108 46 174 0.0 0.0 0.00 0.07 0.07 99 1008.9
20260509071604 46 174 0.0 0.9 0.00 0.07 0.07 99 1009.3
20260509071102 46 174 0.9 0.9 0.00 0.07 0.07 99 1009.4
20260509070559 46 174 0.0 0.9 0.00 0.07 0.07 99 1009.6
20260509070055 46 174 0.9 0.9 0.05 0.07 0.07 99 1009.6
20260509065550 46 174 0.9 0.9 0.05 0.07 0.07 99 1009.8
20260509065047 46 174 0.0 0.0 0.00 0.06 0.06 99 1009.8
20260509064545 46 174 0.0 0.0 0.07 0.06 0.06 99 1009.8
20260509064043 46 174 0.0 0.9 0.12 0.06 0.06 98 1010.1
20260509063538 46 174 0.0 0.9 0.12 0.05 0.05 98 1009.8
20260509063036 46 174 0.9 0.9 0.12 0.04 0.04 98 1009.9
20260509062532 46 174 0.9 0.9 0.12 0.03 0.03 97 1009.8
20260509062030 46 211 0.9 0.9 0.12 0.03 0.03 97 1009.9
20260509061527 46 196 0.0 0.9 0.12 0.02 0.02 96 1010.1
20260509061024 46 204 0.0 0.0 0.05 0.01 0.01 95 1010.2
20260509060521 46 159 0.9 1.7 0.00 0.00 0.00 95 1009.8
20260509060017 46 159 0.9 1.7 0.00 0.00 0.00 94 1009.9
20260509055512 46 159 0.0 0.9 0.00 0.00 0.00 94 1010.2
20260509055009 46 159 0.9 0.9 0.00 0.00 0.00 95 1010.1
20260509054506 46 159 0.0 0.9 0.00 0.00 0.00 94 1010.1
20260509054004 46 159 0.0 0.0 0.00 0.00 0.00 93 1009.8
20260509053502 46 159 0.0 0.0 0.00 0.00 0.00 93 1009.8
20260509052959 46 159 0.0 0.0 0.00 0.00 0.00 92 1009.6
20260509052456 46 159 0.9 0.9 0.00 0.00 0.00 91 1009.6
20260509051954 46 159 0.0 0.0 0.00 0.00 0.00 90 1009.7
20260509051452 46 159 0.0 0.0 0.00 0.00 0.00 91 1009.9
20260509050948 45 159 0.9 0.9 0.00 0.00 0.00 91 1009.9
20260509050445 45 159 0.9 0.9 0.00 0.00 0.00 91 1009.8
20260509045942 45 159 0.0 0.9 0.00 0.00 0.00 90 1009.9
20260509045439 45 159 0.0 0.9 0.00 0.00 0.00 90 1010.1
20260509044936 46 159 0.9 0.9 0.00 0.00 0.00 90 1010.2
20260509044434 45 159 0.0 0.0 0.00 0.00 0.00 90 1010.1
20260509043931 45 159 0.0 0.0 0.00 0.00 0.00 91 1010.3
20260509043426 45 159 0.9 0.9 0.00 0.00 0.00 91 1010.3
20260509042922 46 159 0.0 0.9 0.00 0.00 0.00 90 1010.3
20260509042420 45 159 0.9 0.9 0.00 0.00 0.00 90 1010.3
20260509041915 45 159 0.9 0.9 0.00 0.00 0.00 90 1010.2
20260509041412 45 159 0.0 0.9 0.00 0.00 0.00 90 1010.4
20260509040910 45 159 0.9 0.9 0.00 0.00 0.00 90 1009.9
20260509040408 45 159 0.0 0.9 0.00 0.00 0.00 90 1010.2
20260509035905 45 159 0.9 0.9 0.00 0.08 0.08 90 1010.4
20260509035402 44 159 0.9 0.9 0.00 0.08 0.08 90 1010.3
20260509034858 44 159 0.9 0.9 0.00 0.08 0.08 90 1010.1
20260509034356 44 159 0.9 0.9 0.00 0.08 0.08 91 1010.3
20260509033853 44 159 0.9 0.9 0.00 0.08 0.08 92 1010.3
20260509033350 44 159 0.9 0.9 0.00 0.08 0.08 91 1010.1
20260509032846 44 159 0.0 0.9 0.00 0.08 0.08 90 1010.3
20260509032343 44 159 0.0 0.0 0.00 0.08 0.08 89 1010.2
20260509031841 44 159 0.9 0.9 0.00 0.08 0.08 89 1009.9
20260509031333 45 159 0.9 0.9 0.00 0.08 0.08 89 1009.8
20260509030830 45 159 0.0 0.9 0.00 0.08 0.08 89 1010.1
20260509030328 45 159 0.9 0.9 0.00 0.08 0.08 87 1010.3
20260509025825 46 159 0.9 0.9 0.00 0.08 0.08 87 1010.4
20260509025320 46 159 0.0 0.9 0.00 0.08 0.08 87 1010.2
20260509024816 46 159 0.0 0.0 0.00 0.08 0.08 86 1009.9
20260509024312 46 159 0.0 0.0 0.00 0.08 0.08 86 1009.8
20260509023809 47 159 0.0 0.0 0.00 0.08 0.08 84 1010.4
20260509023307 47 159 0.9 0.9 0.00 0.08 0.08 84 1010.3
20260509022803 47 159 0.0 0.9 0.00 0.08 0.08 84 1010.2
20260509022301 47 159 0.0 0.0 0.00 0.08 0.08 84 1010.3
20260509021757 47 159 0.0 0.0 0.00 0.08 0.08 84 1010.2
20260509021254 47 159 0.9 0.9 0.00 0.08 0.08 84 1010.2
20260509020752 47 159 0.0 0.0 0.00 0.08 0.08 84 1010.2
20260509020250 48 159 0.0 0.0 0.00 0.08 0.08 83 1010.2
20260509015747 48 159 0.0 0.0 0.00 0.08 0.08 84 1009.9
20260509015245 48 159 0.0 0.9 0.00 0.08 0.08 84 1009.6
20260509014741 48 159 0.0 0.0 0.00 0.08 0.08 83 1009.9
20260509014239 48 159 0.9 0.9 0.00 0.08 0.08 84 1010.1
20260509013735 48 159 0.0 0.0 0.00 0.08 0.08 83 1009.9
20260509013231 48 159 0.0 0.0 0.00 0.08 0.08 83 1009.8
20260509012728 48 159 0.0 0.0 0.00 0.08 0.08 83 1009.9
20260509012224 48 159 0.0 0.0 0.00 0.08 0.08 83 1009.6
20260509011722 48 159 0.0 0.0 0.00 0.08 0.08 83 1009.5
20260509011219 48 159 0.0 0.9 0.00 0.08 0.08 82 1009.6
20260509010717 48 159 0.0 0.9 0.00 0.08 0.08 82 1009.3
20260509010213 48 159 0.0 0.0 0.00 0.08 0.08 82 1009.2
20260509005711 48 159 0.0 0.9 0.00 0.08 0.08 82 1009.1
20260509005208 48 159 0.0 0.9 0.00 0.08 0.08 81 1009.3
20260509004702 48 159 0.0 0.9 0.00 0.08 0.08 82 1009.3
20260509004200 48 159 0.0 0.0 0.00 0.08 0.08 81 1009.3
20260509003658 48 159 0.0 0.0 0.00 0.08 0.08 80 1009.3
20260509003155 48 159 0.0 0.9 0.00 0.08 0.08 81 1009.2
20260509002653 48 159 0.0 0.0 0.00 0.08 0.08 80 1009.0
20260509002150 48 159 0.0 0.0 0.00 0.08 0.08 79 1009.5
20260509001648 49 159 0.0 0.9 0.00 0.08 0.08 79 1009.2
20260509001143 49 159 0.9 0.9 0.00 0.08 0.08 79 1009.1
20260509000641 49 160 0.0 0.0 0.00 0.08 0.08 77 1008.9
20260509000138 50 160 0.0 0.0 0.00 0.08 0.08 76 1008.7
20260508235635 50 170 0.9 0.9 0.00 0.08 0.08 75 1008.7
20260508235132 50 170 0.0 0.0 0.00 0.08 0.08 75 1008.7
20260508234629 51 170 0.0 0.0 0.00 0.08 0.08 74 1008.8
20260508234125 51 170 0.9 0.9 0.00 0.08 0.08 73 1009.0
20260508233625 51 170 0.0 0.0 0.00 0.08 0.08 71 1008.8
20260508233122 51 171 0.0 0.0 0.00 0.08 0.08 70 1008.7
20260508232619 52 171 0.0 0.0 0.00 0.08 0.08 70 1008.5
20260508232116 52 170 0.0 0.9 0.00 0.08 0.08 70 1008.6
20260508231614 52 171 0.0 0.0 0.00 0.08 0.08 68 1008.7
20260508231110 53 170 0.9 0.9 0.00 0.08 0.08 67 1008.8
20260508230607 53 171 0.9 0.9 0.00 0.08 0.08 67 1008.6
20260508230103 53 245 0.9 0.9 0.00 0.08 0.08 65 1008.5
20260508225601 53 163 1.7 1.7 0.00 0.08 0.08 65 1008.9
20260508225057 53 37 1.7 2.6 0.00 0.08 0.08 64 1008.8
20260508224555 53 208 0.0 0.0 0.00 0.08 0.08 65 1008.8
20260508224052 53 186 0.9 0.9 0.00 0.08 0.08 64 1008.6
20260508223550 53 164 0.0 0.0 0.00 0.08 0.08 66 1008.6
20260508223047 53 194 1.7 1.7 0.00 0.08 0.08 62 1008.5
20260508222544 53 197 0.9 1.7 0.00 0.08 0.08 63 1008.3
20260508222041 53 185 0.0 0.0 0.00 0.08 0.08 66 1008.2
20260508221537 53 180 0.0 0.0 0.00 0.08 0.08 67 1008.4
20260508221033 53 187 0.0 0.9 0.00 0.08 0.08 67 1008.4
20260508220530 53 175 0.0 0.0 0.00 0.08 0.08 68 1008.3
20260508220026 54 177 0.9 0.9 0.00 0.08 0.08 65 1008.6
20260508215524 54 179 0.0 0.9 0.00 0.08 0.08 63 1008.6
20260508215020 54 216 0.9 1.7 0.00 0.08 0.08 59 1008.3
20260508214518 54 219 0.0 0.0 0.00 0.08 0.08 62 1008.4
20260508214014 54 231 1.7 1.7 0.00 0.08 0.08 60 1008.5
20260508213512 55 237 0.9 1.7 0.00 0.08 0.08 60 1008.4
20260508213007 56 219 0.9 1.7 0.00 0.08 0.08 56 1008.5
20260508212504 55 190 0.9 1.7 0.00 0.08 0.08 56 1008.4
20260508212000 58 238 2.6 3.5 0.00 0.08 0.08 55 1008.4
20260508211455 58 286 0.0 0.9 0.00 0.08 0.08 54 1008.6
20260508210952 56 247 0.9 0.9 0.00 0.08 0.08 59 1008.3
20260508210449 55 217 1.7 1.7 0.00 0.08 0.08 56 1008.3
20260508205945 55 233 2.6 3.5 0.00 0.08 0.08 57 1008.4
20260508205443 55 229 1.7 1.7 0.00 0.08 0.08 57 1008.4
20260508204939 55 164 0.9 1.7 0.00 0.08 0.08 59 1008.5
20260508204437 55 248 1.7 2.6 0.00 0.08 0.08 58 1008.4
20260508203931 55 248 1.7 1.7 0.00 0.08 0.08 55 1008.6
20260508203428 56 229 2.6 5.2 0.00 0.08 0.08 54 1008.4
20260508202924 58 223 6.1 7.0 0.00 0.08 0.08 52 1008.3
20260508202421 58 229 3.5 6.1 0.00 0.08 0.08 52 1008.6
20260508201918 59 235 1.7 2.6 0.00 0.08 0.08 56 1008.5
20260508201415 58 224 3.5 6.1 0.00 0.08 0.08 54 1008.5
20260508200911 57 225 3.5 3.5 0.00 0.08 0.08 55 1008.6
20260508200409 57 258 3.5 3.5 0.00 0.08 0.08 55 1008.6
20260508195904 56 222 0.9 0.9 0.00 0.08 0.08 58 1008.5
20260508195401 55 240 1.7 2.6 0.00 0.08 0.08 63 1008.6
20260508194857 57 217 1.7 2.6 0.00 0.08 0.08 59 1008.7
20260508194354 57 225 2.6 2.6 0.00 0.08 0.08 56 1008.9
20260508193851 56 196 3.5 3.5 0.00 0.08 0.08 60 1008.7
20260508193348 57 230 5.2 6.1 0.00 0.08 0.08 58 1008.9
20260508192844 56 250 1.7 2.6 0.00 0.08 0.08 63 1008.7
20260508192341 54 187 3.5 5.2 0.00 0.08 0.08 62 1008.9
20260508191838 55 233 1.7 2.6 0.00 0.08 0.08 61 1008.8
20260508191336 56 233 6.1 7.0 0.00 0.08 0.08 61 1008.9
20260508190833 55 239 4.3 5.2 0.00 0.08 0.08 65 1008.8
20260508190329 53 258 2.6 3.5 0.00 0.08 0.08 68 1009.1
20260508185826 52 317 1.7 2.6 0.00 0.08 0.08 69 1009.1
20260508185323 53 286 2.6 2.6 0.00 0.08 0.08 69 1009.3
20260508184820 54 269 5.2 7.8 0.00 0.08 0.08 66 1009.5
20260508184318 53 202 5.2 7.0 0.00 0.08 0.08 68 1009.3
20260508183814 53 243 3.5 5.2 0.00 0.08 0.08 71 1009.3
20260508183311 51 189 0.9 1.7 0.00 0.08 0.08 77 1009.4
20260508182806 51 230 2.6 3.5 0.00 0.08 0.08 76 1009.3
20260508182306 51 224 2.6 2.6 0.00 0.08 0.08 77 1009.5
20260508181753 53 230 5.2 6.1 0.00 0.08 0.08 73 1009.3
20260508181250 51 248 1.7 2.6 0.00 0.08 0.08 74 1009.3
20260508180747 50 239 3.5 5.2 0.00 0.08 0.08 76 1009.4
20260508180244 48 213 4.3 5.2 0.00 0.08 0.08 77 1009.4
20260508175741 48 350 1.7 1.7 0.00 0.08 0.08 77 1009.3